| time (UTC) | temp C | wind direction | speed KPH | gust KPH | rain 1hr cm | rain 24hr cm | rain mn cm | humidity % | barometer mb |
| 20260508101959 | 11 | 327 | 9.7 | 12.9 | 0.00 | 0.00 | 0.00 | 32 | 1017.9 |
| 20260508101901 | 11 | 249 | 12.9 | 17.7 | 0.00 | 0.00 | 0.00 | 32 | 1018.1 |
| 20260508093414 | 10 | 316 | 4.8 | 6.4 | 0.00 | 0.00 | 0.00 | 38 | 1017.8 |
| 20260508084931 | 10 | 250 | 3.2 | 4.8 | 0.00 | 0.00 | 0.00 | 39 | 1017.7 |
| 20260508083416 | 10 | 292 | 4.8 | 6.4 | 0.00 | 0.00 | 0.00 | 46 | 1017.7 |
| 20260508081901 | 10 | 284 | 4.8 | 6.4 | 0.00 | 0.00 | 0.00 | 45 | 1017.6 |
| 20260508080447 | 10 | 305 | 3.2 | 4.8 | 0.00 | 0.00 | 0.00 | 47 | 1017.5 |
| 20260508074932 | 10 | 284 | 0.0 | 1.6 | 0.00 | 0.00 | 0.00 | 50 | 1017.4 |
| 20260508073417 | 9 | 322 | 4.8 | 6.4 | 0.00 | 0.00 | 0.00 | 51 | 1017.3 |
| 20260508071902 | 9 | 302 | 6.4 | 6.4 | 0.00 | 0.00 | 0.00 | 49 | 1017.1 |
| 20260508070447 | 8 | 290 | 3.2 | 3.2 | 0.00 | 0.00 | 0.00 | 55 | 1016.9 |
| 20260508064933 | 8 | 315 | 4.8 | 6.4 | 0.00 | 0.00 | 0.00 | 56 | 1016.8 |
| 20260508061902 | 7 | 321 | 3.2 | 4.8 | 0.00 | 0.00 | 0.00 | 65 | 1016.4 |
| 20260508044934 | 3 | 169 | 1.6 | 3.2 | 0.00 | 0.00 | 0.00 | 86 | 1015.5 |
| 20260508043419 | 3 | 169 | 0.0 | 0.0 | 0.00 | 0.00 | 0.00 | 83 | 1015.5 |
| 20260508041904 | 1 | 168 | 0.0 | 0.0 | 0.00 | 0.00 | 0.00 | 88 | 1015.4 |
| 20260508034935 | 0 | 168 | 0.0 | 0.0 | 0.00 | 0.00 | 0.00 | 92 | 1015.1 |
| 20260508033422 | -1 | 168 | 0.0 | 0.0 | 0.00 | 0.00 | 0.00 | 93 | 1014.8 |
| 20260508031908 | -2 | 168 | 1.6 | 1.6 | 0.00 | 0.00 | 0.00 | 94 | 1014.8 |
| 20260508024935 | -3 | 168 | 0.0 | 0.0 | 0.00 | 0.00 | 0.00 | 96 | 1014.4 |
| 20260508021906 | -3 | 168 | 0.0 | 1.6 | 0.00 | 0.00 | 0.00 | 96 | 1014.1 |
| 20260508020451 | -3 | 168 | 0.0 | 1.6 | 0.00 | 0.00 | 0.00 | 96 | 1014.0 |
| 20260508014937 | -3 | 168 | 0.0 | 0.0 | 0.00 | 0.00 | 0.00 | 96 | 1014.0 |
| 20260508011906 | -3 | 168 | 0.0 | 0.0 | 0.00 | 0.00 | 0.00 | 96 | 1013.7 |
| 20260508010453 | -3 | 236 | 0.0 | 0.0 | 0.00 | 0.00 | 0.00 | 96 | 1013.6 |
| 20260508001908 | -2 | 276 | 0.0 | 0.0 | 0.00 | 0.00 | 0.00 | 96 | 1013.1 |
| 20260508000453 | -2 | 276 | 0.0 | 0.0 | 0.00 | 0.00 | 0.00 | 96 | 1013.0 |
| 20260507234939 | -2 | 276 | 0.0 | 0.0 | 0.00 | 0.00 | 0.00 | 96 | 1013.0 |
| 20260507231909 | -2 | 276 | 0.0 | 0.0 | 0.00 | 0.00 | 0.00 | 95 | 1012.6 |
| 20260507223424 | -2 | 276 | 0.0 | 0.0 | 0.00 | 0.00 | 0.00 | 94 | 1012.1 |
| 20260507221909 | -2 | 276 | 0.0 | 0.0 | 0.00 | 0.00 | 0.00 | 94 | 1012.1 |
| 20260507220455 | -2 | 276 | 0.0 | 0.0 | 0.00 | 0.00 | 0.00 | 93 | 1012.0 |
| 20260507214939 | -2 | 276 | 0.0 | 0.0 | 0.00 | 0.00 | 0.00 | 93 | 1011.9 |
| 20260507213425 | -1 | 276 | 0.0 | 0.0 | 0.00 | 0.00 | 0.00 | 93 | 1011.6 |
| 20260507211909 | -1 | 276 | 0.0 | 0.0 | 0.00 | 0.00 | 0.00 | 92 | 1011.3 |
| 20260507210456 | 0 | 276 | 0.0 | 0.0 | 0.00 | 0.00 | 0.00 | 92 | 1011.2 |
| 20260507203426 | 0 | 276 | 0.0 | 0.0 | 0.00 | 0.00 | 0.00 | 89 | 1011.0 |
| 20260507201910 | 1 | 276 | 0.0 | 0.0 | 0.00 | 0.00 | 0.00 | 88 | 1010.8 |
| 20260507200456 | 1 | 276 | 0.0 | 0.0 | 0.00 | 0.00 | 0.00 | 86 | 1010.6 |
| 20260507191912 | 2 | 275 | 0.0 | 0.0 | 0.00 | 0.00 | 0.00 | 81 | 1010.2 |
| 20260507190457 | 2 | 275 | 3.2 | 6.4 | 0.00 | 0.00 | 0.00 | 80 | 1010.4 |
| 20260507184943 | 3 | 275 | 1.6 | 3.2 | 0.00 | 0.00 | 0.00 | 79 | 1010.1 |
| 20260507183428 | 3 | 285 | 3.2 | 4.8 | 0.00 | 0.00 | 0.00 | 78 | 1010.0 |
| 20260507181912 | 3 | 294 | 3.2 | 4.8 | 0.00 | 0.00 | 0.00 | 76 | 1009.8 |
| 20260507170459 | 5 | 261 | 0.0 | 1.6 | 0.00 | 0.00 | 0.00 | 69 | 1009.1 |
| 20260507164943 | 5 | 292 | 3.2 | 6.4 | 0.00 | 0.00 | 0.00 | 68 | 1008.7 |
| 20260507161913 | 6 | 180 | 0.0 | 0.0 | 0.00 | 0.00 | 0.00 | 72 | 1008.5 |
| 20260507160459 | 6 | 181 | 0.0 | 0.0 | 0.00 | 0.00 | 0.00 | 73 | 1008.5 |
| 20260507154944 | 5 | 207 | 0.0 | 1.6 | 0.00 | 0.00 | 0.00 | 79 | 1008.3 |
| 20260507153429 | 5 | 207 | 0.0 | 0.0 | 0.00 | 0.00 | 0.00 | 76 | 1008.2 |
| 20260507144944 | 6 | 314 | 3.2 | 4.8 | 0.00 | 0.00 | 0.00 | 68 | 1007.9 |
| 20260507143429 | 7 | 220 | 6.4 | 8.0 | 0.00 | 0.00 | 0.00 | 48 | 1007.6 |
| 20260507140500 | 8 | 151 | 11.3 | 14.5 | 0.00 | 0.00 | 0.00 | 46 | 1007.0 |
| 20260507134945 | 6 | 136 | 9.7 | 12.9 | 0.00 | 0.00 | 0.00 | 48 | 1007.2 |
| 20260507133430 | 7 | 173 | 6.4 | 8.0 | 0.00 | 0.00 | 0.00 | 43 | 1007.1 |
| 20260507131915 | 8 | 201 | 9.7 | 16.1 | 0.00 | 0.00 | 0.00 | 43 | 1006.9 |
| 20260507123431 | 9 | 255 | 4.8 | 8.0 | 0.00 | 0.00 | 0.00 | 34 | 1006.9 |
| 20260507113431 | 10 | 182 | 3.2 | 4.8 | 0.00 | 0.00 | 0.00 | 38 | 1007.2 |
| 20260507110402 | 8 | 148 | 14.5 | 17.7 | 0.00 | 0.00 | 0.00 | 37 | 1007.2 |
| 20260507104947 | 8 | 267 | 6.4 | 8.0 | 0.00 | 0.00 | 0.00 | 39 | 1007.6 |
| 20260507103432 | 8 | 253 | 4.8 | 4.8 | 0.00 | 0.00 | 0.00 | 42 | 1007.4 |